Year,Month,Day,Hour,Minute,Value (Times are PST for temperature in C)
2009,02,14,00,00,5.30
2009,02,14,00,01,5.30
2009,02,14,00,02,5.30
2009,02,14,00,03,5.30
2009,02,14,00,04,5.30
2009,02,14,00,05,5.30
2009,02,14,00,06,5.30
2009,02,14,00,07,5.30
2009,02,14,00,08,5.30
2009,02,14,00,09,5.20
2009,02,14,00,10,5.20
2009,02,14,00,11,5.20
2009,02,14,00,12,5.20
2009,02,14,00,13,5.20
2009,02,14,00,14,5.20
2009,02,14,00,15,5.20
2009,02,14,00,16,5.20
2009,02,14,00,17,5.20
2009,02,14,00,18,5.20
2009,02,14,00,19,5.20
2009,02,14,00,20,5.20
2009,02,14,00,21,5.20
2009,02,14,00,22,5.20
2009,02,14,00,23,5.20
2009,02,14,00,24,5.20
2009,02,14,00,25,5.20
2009,02,14,00,26,5.20
2009,02,14,00,27,5.20
2009,02,14,00,28,5.20
2009,02,14,00,29,5.20
2009,02,14,00,30,5.20
2009,02,14,00,31,5.20
2009,02,14,00,32,5.20
2009,02,14,00,33,5.20
2009,02,14,00,34,5.20
2009,02,14,00,35,5.10
2009,02,14,00,36,5.10
2009,02,14,00,37,5.20
2009,02,14,00,38,5.20
2009,02,14,00,39,5.20
2009,02,14,00,40,5.20
2009,02,14,00,41,5.20
2009,02,14,00,42,5.20
2009,02,14,00,43,5.20
2009,02,14,00,44,5.20
2009,02,14,00,45,5.20
2009,02,14,00,46,5.20
2009,02,14,00,47,5.20
2009,02,14,00,48,5.20
2009,02,14,00,49,5.20
2009,02,14,00,50,5.20
2009,02,14,00,51,5.20
2009,02,14,00,52,5.20
2009,02,14,00,53,5.20
2009,02,14,00,54,5.20
2009,02,14,00,55,5.20
2009,02,14,00,56,5.20
2009,02,14,00,57,5.20
2009,02,14,00,58,5.20
2009,02,14,00,59,5.20
2009,02,14,01,00,5.20
2009,02,14,01,01,5.20
2009,02,14,01,02,5.20
2009,02,14,01,03,5.10
2009,02,14,01,04,5.10
2009,02,14,01,05,5.10
2009,02,14,01,06,5.10
2009,02,14,01,07,5.10
2009,02,14,01,08,5.10
2009,02,14,01,09,5.10
2009,02,14,01,10,5.10
2009,02,14,01,11,5.10
2009,02,14,01,12,5.10
2009,02,14,01,13,5.10
2009,02,14,01,14,5.10
2009,02,14,01,15,5.10
2009,02,14,01,16,5.10
2009,02,14,01,17,5.10
2009,02,14,01,18,5.10
2009,02,14,01,19,5.10
2009,02,14,01,20,5.10
2009,02,14,01,21,5.10
2009,02,14,01,22,5.10
2009,02,14,01,23,5.10
2009,02,14,01,24,5.10
2009,02,14,01,25,5.10
2009,02,14,01,26,5.10
2009,02,14,01,27,5.10
2009,02,14,01,28,5.10
2009,02,14,01,29,5.10
2009,02,14,01,30,5.10
2009,02,14,01,31,5.10
2009,02,14,01,32,5.10
2009,02,14,01,33,5.10
2009,02,14,01,34,5.10
2009,02,14,01,35,5.10
2009,02,14,01,36,5.10
2009,02,14,01,37,5.10
2009,02,14,01,38,5.10
2009,02,14,01,39,5.10
2009,02,14,01,40,5.10
2009,02,14,01,41,5.10
2009,02,14,01,42,5.10
2009,02,14,01,43,5.10
2009,02,14,01,44,5.10
2009,02,14,01,45,5.10
2009,02,14,01,46,5.10
2009,02,14,01,47,5.10
2009,02,14,01,48,5.10
2009,02,14,01,49,5.10
2009,02,14,01,50,5.10
2009,02,14,01,51,5.10
2009,02,14,01,52,5.10
2009,02,14,01,53,5.10
2009,02,14,01,54,5.10
2009,02,14,01,55,5.10
2009,02,14,01,56,5.10
2009,02,14,01,57,5.10
2009,02,14,01,58,5.00
2009,02,14,01,59,5.00
2009,02,14,02,00,5.10
2009,02,14,02,01,5.00
2009,02,14,02,02,5.10
2009,02,14,02,03,5.10
2009,02,14,02,04,5.10
2009,02,14,02,05,5.00
2009,02,14,02,06,5.10
2009,02,14,02,07,5.10
2009,02,14,02,08,5.10
2009,02,14,02,09,5.10
2009,02,14,02,10,5.10
2009,02,14,02,11,5.10
2009,02,14,02,12,5.10
2009,02,14,02,13,5.10
2009,02,14,02,14,5.10
2009,02,14,02,15,5.10
2009,02,14,02,16,5.10
2009,02,14,02,17,5.10
2009,02,14,02,18,5.10
2009,02,14,02,19,5.10
2009,02,14,02,20,5.10
2009,02,14,02,21,5.00
2009,02,14,02,22,5.00
2009,02,14,02,23,5.00
2009,02,14,02,24,5.00
2009,02,14,02,25,5.00
2009,02,14,02,26,5.00
2009,02,14,02,27,5.00
2009,02,14,02,28,5.00
2009,02,14,02,29,5.00
2009,02,14,02,30,5.00
2009,02,14,02,31,5.00
2009,02,14,02,32,5.00
2009,02,14,02,33,5.00
2009,02,14,02,34,4.90
2009,02,14,02,35,4.90
2009,02,14,02,36,4.90
2009,02,14,02,37,4.90
2009,02,14,02,38,4.90
2009,02,14,02,39,4.90
2009,02,14,02,40,4.90
2009,02,14,02,41,4.90
2009,02,14,02,42,4.90
2009,02,14,02,43,4.90
2009,02,14,02,44,5.00
2009,02,14,02,45,5.00
2009,02,14,02,46,5.00
2009,02,14,02,47,5.00
2009,02,14,02,48,5.00
2009,02,14,02,49,5.00
2009,02,14,02,50,5.00
2009,02,14,02,51,4.90
2009,02,14,02,52,4.90
2009,02,14,02,53,4.90
2009,02,14,02,54,4.90
2009,02,14,02,55,4.90
2009,02,14,02,56,4.90
2009,02,14,02,57,4.90
2009,02,14,02,58,4.90
2009,02,14,02,59,4.90
2009,02,14,03,00,5.00
2009,02,14,03,01,5.00
2009,02,14,03,02,5.00
2009,02,14,03,03,5.00
2009,02,14,03,04,5.00
2009,02,14,03,05,5.00
2009,02,14,03,06,5.00
2009,02,14,03,07,5.00
2009,02,14,03,08,5.00
2009,02,14,03,09,5.00
2009,02,14,03,10,5.00
2009,02,14,03,11,5.00
2009,02,14,03,12,5.00
2009,02,14,03,13,5.00
2009,02,14,03,14,5.00
2009,02,14,03,15,5.00
2009,02,14,03,16,5.00
2009,02,14,03,17,5.00
2009,02,14,03,18,5.00
2009,02,14,03,19,5.00
2009,02,14,03,20,5.10
2009,02,14,03,21,5.10
2009,02,14,03,22,5.10
2009,02,14,03,23,5.10
2009,02,14,03,24,5.10
2009,02,14,03,25,5.00
2009,02,14,03,26,5.00
2009,02,14,03,27,5.00
2009,02,14,03,28,5.00
2009,02,14,03,29,5.00
2009,02,14,03,30,5.00
2009,02,14,03,31,5.00
2009,02,14,03,32,5.00
2009,02,14,03,33,5.00
2009,02,14,03,34,5.00
2009,02,14,03,35,5.00
2009,02,14,03,36,5.00
2009,02,14,03,37,5.00
2009,02,14,03,38,5.00
2009,02,14,03,39,5.00
2009,02,14,03,40,5.00
2009,02,14,03,41,5.00
2009,02,14,03,42,5.00
2009,02,14,03,43,5.00
2009,02,14,03,44,5.00
2009,02,14,03,45,5.00
2009,02,14,03,46,5.00
2009,02,14,03,47,5.00
2009,02,14,03,48,5.00
2009,02,14,03,49,5.00
2009,02,14,03,50,5.00
2009,02,14,03,51,5.00
2009,02,14,03,52,4.90
2009,02,14,03,53,4.90
2009,02,14,03,54,4.90
2009,02,14,03,55,4.90
2009,02,14,03,56,4.90
2009,02,14,03,57,5.00
2009,02,14,03,58,5.00
2009,02,14,03,59,5.00
2009,02,14,04,00,5.00
2009,02,14,04,01,5.00
2009,02,14,04,02,5.00
2009,02,14,04,03,5.00
2009,02,14,04,04,5.00
2009,02,14,04,05,5.00
2009,02,14,04,06,5.00
2009,02,14,04,35,5.00
2009,02,14,05,00,4.90
2009,02,14,05,19,4.80
2009,02,14,05,36,4.80
2009,02,14,05,46,4.80
2009,02,14,06,00,4.70
2009,02,14,06,15,4.70
2009,02,14,06,29,4.60
2009,02,14,06,45,4.60
2009,02,14,06,58,4.60
2009,02,14,07,13,4.50
2009,02,14,07,31,4.60
2009,02,14,07,40,4.60
2009,02,14,08,00,4.60
2009,02,14,08,20,4.70
2009,02,14,08,32,4.70
2009,02,14,08,42,4.80
2009,02,14,08,53,4.80
2009,02,14,09,02,4.90
2009,02,14,09,13,4.90
2009,02,14,09,23,5.00
2009,02,14,09,33,5.10
2009,02,14,09,46,5.20
2009,02,14,09,59,5.40
2009,02,14,10,09,5.40
2009,02,14,10,17,5.60
2009,02,14,10,26,5.70
2009,02,14,10,34,5.70
2009,02,14,10,36,5.80
2009,02,14,10,37,5.80
2009,02,14,10,38,5.80
2009,02,14,10,39,5.80
2009,02,14,10,40,5.80
2009,02,14,10,41,5.80
2009,02,14,10,42,5.80
2009,02,14,10,43,5.80
2009,02,14,10,44,5.90
2009,02,14,10,45,5.90
2009,02,14,10,46,6.00
2009,02,14,10,47,6.00
2009,02,14,10,48,6.00
2009,02,14,10,49,6.10
2009,02,14,10,50,6.10
2009,02,14,10,51,6.10
2009,02,14,10,52,6.20
2009,02,14,10,53,6.20
2009,02,14,10,54,6.20
2009,02,14,10,55,6.10
2009,02,14,10,56,6.10
2009,02,14,10,57,6.10
2009,02,14,10,58,6.10
2009,02,14,10,59,6.10
2009,02,14,11,00,6.10
2009,02,14,11,01,6.10
2009,02,14,11,02,6.10
2009,02,14,11,03,6.10
2009,02,14,11,04,6.10
2009,02,14,11,05,6.10
2009,02,14,11,06,6.20
2009,02,14,11,07,6.20
2009,02,14,11,08,6.20
2009,02,14,11,09,6.30
2009,02,14,11,10,6.30
2009,02,14,11,11,6.30
2009,02,14,11,12,6.30
2009,02,14,11,13,6.30
2009,02,14,11,14,6.30
2009,02,14,11,15,6.30
2009,02,14,11,16,6.30
2009,02,14,11,17,6.30
2009,02,14,11,18,6.30
2009,02,14,11,19,6.30
2009,02,14,11,20,6.30
2009,02,14,11,21,6.30
2009,02,14,11,22,6.30
2009,02,14,11,23,6.30
2009,02,14,11,24,6.30
2009,02,14,11,25,6.30
2009,02,14,11,26,6.30
2009,02,14,11,27,6.20
2009,02,14,11,28,6.30
2009,02,14,11,29,6.30
2009,02,14,11,30,6.30
2009,02,14,11,31,6.30
2009,02,14,11,32,6.30
2009,02,14,11,33,6.30
2009,02,14,11,34,6.30
2009,02,14,11,35,6.30
2009,02,14,11,36,6.30
2009,02,14,11,37,6.30
2009,02,14,11,38,6.30
2009,02,14,11,39,6.30
2009,02,14,11,40,6.30
2009,02,14,11,41,6.40
2009,02,14,11,42,6.40
2009,02,14,11,43,6.40
2009,02,14,11,44,6.40
2009,02,14,11,45,6.50
2009,02,14,11,46,6.50
2009,02,14,11,47,6.50
2009,02,14,11,48,6.60
2009,02,14,11,49,6.60
2009,02,14,11,50,6.60
2009,02,14,11,51,6.70
2009,02,14,11,52,6.70
2009,02,14,11,53,6.70
2009,02,14,11,54,6.80
2009,02,14,11,55,6.80
2009,02,14,11,56,6.80
2009,02,14,11,57,6.80
2009,02,14,11,58,6.90
2009,02,14,11,59,6.90
2009,02,14,12,00,6.90
2009,02,14,12,01,7.00
2009,02,14,12,02,7.00
2009,02,14,12,03,7.00
2009,02,14,12,04,6.90
2009,02,14,12,05,6.90
2009,02,14,12,06,7.00
2009,02,14,12,07,7.10
2009,02,14,12,08,7.10
2009,02,14,12,09,7.20
2009,02,14,12,10,7.20
2009,02,14,12,11,7.20
2009,02,14,12,12,7.20
2009,02,14,12,13,7.20
2009,02,14,12,14,7.30
2009,02,14,12,15,7.30
2009,02,14,12,16,7.30
2009,02,14,12,17,7.30
2009,02,14,12,18,7.20
2009,02,14,12,19,7.20
2009,02,14,12,20,7.10
2009,02,14,12,21,7.10
2009,02,14,12,22,7.00
2009,02,14,12,23,6.90
2009,02,14,12,24,6.90
2009,02,14,12,25,6.80
2009,02,14,12,26,6.80
2009,02,14,12,27,6.70
2009,02,14,12,28,6.70
2009,02,14,12,29,6.70
2009,02,14,12,30,6.70
2009,02,14,12,31,6.60
2009,02,14,12,32,6.60
2009,02,14,12,33,6.70
2009,02,14,12,34,6.70
2009,02,14,12,35,6.70
2009,02,14,12,36,6.60
2009,02,14,12,37,6.60
2009,02,14,12,38,6.50
2009,02,14,12,39,6.50
2009,02,14,12,40,6.50
2009,02,14,12,41,6.50
2009,02,14,12,42,6.40
2009,02,14,12,43,6.40
2009,02,14,12,44,6.40
2009,02,14,12,45,6.40
2009,02,14,12,46,6.50
2009,02,14,12,47,6.50
2009,02,14,12,48,6.50
2009,02,14,12,49,6.50
2009,02,14,12,50,6.50
2009,02,14,12,51,6.40
2009,02,14,12,52,6.40
2009,02,14,12,53,6.40
2009,02,14,12,54,6.50
2009,02,14,12,55,6.50
2009,02,14,12,56,6.50
2009,02,14,12,57,6.50
2009,02,14,12,58,6.60
2009,02,14,12,59,6.60
2009,02,14,13,00,6.60
2009,02,14,13,01,6.60
2009,02,14,13,02,6.70
2009,02,14,13,03,6.70
2009,02,14,13,04,6.80
2009,02,14,13,05,6.80
2009,02,14,13,06,6.90
2009,02,14,13,07,6.90
2009,02,14,13,08,6.90
2009,02,14,13,09,6.90
2009,02,14,13,10,6.90
2009,02,14,13,11,6.90
2009,02,14,13,12,6.90
2009,02,14,13,13,6.90
2009,02,14,13,14,6.90
2009,02,14,13,15,6.90
2009,02,14,13,16,6.90
2009,02,14,13,17,6.90
2009,02,14,13,18,6.90
2009,02,14,13,19,7.00
2009,02,14,13,20,7.00
2009,02,14,13,21,7.10
2009,02,14,13,22,7.20
2009,02,14,13,23,7.20
2009,02,14,13,24,7.20
2009,02,14,13,25,7.10
2009,02,14,13,26,7.00
2009,02,14,13,27,7.00
2009,02,14,13,28,7.00
2009,02,14,13,29,7.00
2009,02,14,13,30,7.00
2009,02,14,13,31,7.00
2009,02,14,13,32,7.00
2009,02,14,13,33,6.90
2009,02,14,13,34,6.90
2009,02,14,13,35,6.80
2009,02,14,13,36,6.80
2009,02,14,13,37,6.80
2009,02,14,13,38,6.70
2009,02,14,13,39,6.70
2009,02,14,13,40,6.70
2009,02,14,13,41,6.70
2009,02,14,13,42,6.70
2009,02,14,13,43,6.80
2009,02,14,13,44,6.80
2009,02,14,13,45,6.90
2009,02,14,13,46,6.90
2009,02,14,13,47,6.90
2009,02,14,13,48,6.80
2009,02,14,13,49,6.80
2009,02,14,13,50,6.80
2009,02,14,13,51,6.80
2009,02,14,13,52,6.80
2009,02,14,13,53,6.80
2009,02,14,13,54,6.80
2009,02,14,13,55,6.80
2009,02,14,13,56,6.90
2009,02,14,13,57,6.90
2009,02,14,13,58,6.90
2009,02,14,13,59,6.90
2009,02,14,14,00,7.00
2009,02,14,14,01,7.00
2009,02,14,14,02,7.10
2009,02,14,14,03,7.10
2009,02,14,14,04,7.00
2009,02,14,14,05,7.00
2009,02,14,14,06,6.90
2009,02,14,14,07,6.90
2009,02,14,14,08,6.90
2009,02,14,14,09,7.00
2009,02,14,14,10,7.00
2009,02,14,14,11,6.90
2009,02,14,14,12,6.90
2009,02,14,14,13,6.90
2009,02,14,14,14,6.80
2009,02,14,14,15,6.90
2009,02,14,14,16,6.90
2009,02,14,14,17,6.80
2009,02,14,14,18,6.80
2009,02,14,14,19,6.80
2009,02,14,14,20,6.80
2009,02,14,14,21,6.80
2009,02,14,14,22,6.80
2009,02,14,14,23,6.80
2009,02,14,14,24,6.80
2009,02,14,14,25,6.80
2009,02,14,14,26,6.90
2009,02,14,14,27,6.90
2009,02,14,14,28,6.90
2009,02,14,14,29,6.90
2009,02,14,14,30,6.80
2009,02,14,14,31,6.80
2009,02,14,14,32,6.80
2009,02,14,14,33,6.80
2009,02,14,14,34,6.80
2009,02,14,14,35,6.90
2009,02,14,14,36,6.80
2009,02,14,14,37,6.80
2009,02,14,14,38,6.80
2009,02,14,14,39,6.80
2009,02,14,14,40,6.80
2009,02,14,14,41,6.80
2009,02,14,14,42,6.80
2009,02,14,14,43,6.80
2009,02,14,14,44,6.80
2009,02,14,14,45,6.80
2009,02,14,14,46,6.80
2009,02,14,14,47,6.80
2009,02,14,14,48,6.90
2009,02,14,14,49,6.90
2009,02,14,14,50,6.90
2009,02,14,14,51,6.90
2009,02,14,14,52,6.90
2009,02,14,14,53,6.80
2009,02,14,14,54,6.90
2009,02,14,14,55,6.90
2009,02,14,14,56,7.00
2009,02,14,14,57,7.00
2009,02,14,14,58,7.10
2009,02,14,14,59,7.10
2009,02,14,15,00,7.10
2009,02,14,15,01,7.10
2009,02,14,15,02,7.10
2009,02,14,15,03,7.10
2009,02,14,15,04,7.10
2009,02,14,15,05,7.00
2009,02,14,15,06,7.00
2009,02,14,15,07,7.00
2009,02,14,15,08,6.90
2009,02,14,15,09,6.90
2009,02,14,15,10,6.90
2009,02,14,15,11,6.90
2009,02,14,15,12,6.80
2009,02,14,15,13,6.80
2009,02,14,15,14,6.70
2009,02,14,15,15,6.70
2009,02,14,15,16,6.70
2009,02,14,15,17,6.70
2009,02,14,15,18,6.70
2009,02,14,15,19,6.60
2009,02,14,15,20,6.60
2009,02,14,15,21,6.60
2009,02,14,15,22,6.60
2009,02,14,15,23,6.60
2009,02,14,15,24,6.60
2009,02,14,15,25,6.60
2009,02,14,15,26,6.60
2009,02,14,15,27,6.60
2009,02,14,15,28,6.60
2009,02,14,15,29,6.70
2009,02,14,15,30,6.60
2009,02,14,15,31,6.70
2009,02,14,15,32,6.70
2009,02,14,15,33,6.70
2009,02,14,15,34,6.70
2009,02,14,15,35,6.70
2009,02,14,15,36,6.70
2009,02,14,15,37,6.80
2009,02,14,15,38,6.80
2009,02,14,15,39,6.80
2009,02,14,15,40,6.80
2009,02,14,15,41,6.80
2009,02,14,15,42,6.80
2009,02,14,15,43,6.80
2009,02,14,15,44,6.80
2009,02,14,15,45,6.80
2009,02,14,15,46,6.80
2009,02,14,15,47,6.80
2009,02,14,15,48,6.90
2009,02,14,15,49,6.90
2009,02,14,15,50,6.90
2009,02,14,15,51,6.90
2009,02,14,15,52,6.90
2009,02,14,15,53,6.90
2009,02,14,15,54,6.90
2009,02,14,15,55,6.90
2009,02,14,15,56,6.90
2009,02,14,15,57,6.90
2009,02,14,15,58,6.90
2009,02,14,15,59,6.90
2009,02,14,16,00,6.90
2009,02,14,16,01,6.90
2009,02,14,16,02,6.90
2009,02,14,16,03,6.90
2009,02,14,16,04,6.90
2009,02,14,16,05,6.90
2009,02,14,16,06,6.80
2009,02,14,16,07,6.80
2009,02,14,16,08,6.70
2009,02,14,16,09,6.70
2009,02,14,16,10,6.70
2009,02,14,16,11,6.70
2009,02,14,16,12,6.70
2009,02,14,16,13,6.70
2009,02,14,16,14,6.70
2009,02,14,16,15,6.70
2009,02,14,16,16,6.70
2009,02,14,16,17,6.70
2009,02,14,16,18,6.60
2009,02,14,16,19,6.60
2009,02,14,16,20,6.60
2009,02,14,16,21,6.60
2009,02,14,16,22,6.60
2009,02,14,16,23,6.60
2009,02,14,16,24,6.60
2009,02,14,16,25,6.60
2009,02,14,16,26,6.60
2009,02,14,16,27,6.60
2009,02,14,16,28,6.60
2009,02,14,16,29,6.60
2009,02,14,16,30,6.60
2009,02,14,16,31,6.60
2009,02,14,16,32,6.60
2009,02,14,16,33,6.60
2009,02,14,16,34,6.60
2009,02,14,16,35,6.60
2009,02,14,16,36,6.60
2009,02,14,16,37,6.60
2009,02,14,16,38,6.60
2009,02,14,16,39,6.50
2009,02,14,16,40,6.50
2009,02,14,16,41,6.50
2009,02,14,16,42,6.40
2009,02,14,16,43,6.40
2009,02,14,16,44,6.40
2009,02,14,16,45,6.40
2009,02,14,16,46,6.40
2009,02,14,16,47,6.40
2009,02,14,16,48,6.30
2009,02,14,16,49,6.30
2009,02,14,16,50,6.30
2009,02,14,16,51,6.30
2009,02,14,16,52,6.30
2009,02,14,16,53,6.30
2009,02,14,16,54,6.30
2009,02,14,16,55,6.30
2009,02,14,16,56,6.30
2009,02,14,16,57,6.30
2009,02,14,16,58,6.30
2009,02,14,16,59,6.30
2009,02,14,17,00,6.30
2009,02,14,17,01,6.30
2009,02,14,17,02,6.30
2009,02,14,17,03,6.30
2009,02,14,17,04,6.30
2009,02,14,17,05,6.30
2009,02,14,17,06,6.30
2009,02,14,17,07,6.30
2009,02,14,17,08,6.20
2009,02,14,17,09,6.20
2009,02,14,17,10,6.20
2009,02,14,17,11,6.20
2009,02,14,17,12,6.20
2009,02,14,17,13,6.20
2009,02,14,17,14,6.20
2009,02,14,17,15,6.20
2009,02,14,17,16,6.20
2009,02,14,17,17,6.10
2009,02,14,17,18,6.10
2009,02,14,17,19,6.10
2009,02,14,17,20,6.20
2009,02,14,17,21,6.10
2009,02,14,17,22,6.20
2009,02,14,17,23,6.20
2009,02,14,17,24,6.20
2009,02,14,17,25,6.20
2009,02,14,17,26,6.10
2009,02,14,17,27,6.10
2009,02,14,17,28,6.20
2009,02,14,17,29,6.20
2009,02,14,17,30,6.10
2009,02,14,17,31,6.10
2009,02,14,17,32,6.10
2009,02,14,17,33,6.10
2009,02,14,17,34,6.10
2009,02,14,17,35,6.10
2009,02,14,17,36,6.10
2009,02,14,17,37,6.10
2009,02,14,17,38,6.00
2009,02,14,17,39,6.00
2009,02,14,17,40,6.00
2009,02,14,17,41,6.00
2009,02,14,17,42,5.90
2009,02,14,17,43,5.90
2009,02,14,17,44,5.90
2009,02,14,17,45,5.90
2009,02,14,17,46,5.90
2009,02,14,17,47,5.80
2009,02,14,17,48,5.80
2009,02,14,17,49,5.80
2009,02,14,17,50,5.80
2009,02,14,17,51,5.80
2009,02,14,17,52,5.80
2009,02,14,17,53,5.80
2009,02,14,17,54,5.80
2009,02,14,17,55,5.80
2009,02,14,17,56,5.80
2009,02,14,17,57,5.80
2009,02,14,17,58,5.70
2009,02,14,17,59,5.70
2009,02,14,18,00,5.70
2009,02,14,18,01,5.70
2009,02,14,18,02,5.70
2009,02,14,18,03,5.70
2009,02,14,18,04,5.60
2009,02,14,18,05,5.60
2009,02,14,18,06,5.60
2009,02,14,18,07,5.60
2009,02,14,18,08,5.60
2009,02,14,18,09,5.50
2009,02,14,18,10,5.50
2009,02,14,18,11,5.50
2009,02,14,18,12,5.50
2009,02,14,18,13,5.40
2009,02,14,18,14,5.40
2009,02,14,18,15,5.40
2009,02,14,18,16,5.40
2009,02,14,18,17,5.30
2009,02,14,18,18,5.30
2009,02,14,18,19,5.30
2009,02,14,18,20,5.30
2009,02,14,18,21,5.20
2009,02,14,18,22,5.20
2009,02,14,18,23,5.20
2009,02,14,18,24,5.20
2009,02,14,18,25,5.10
2009,02,14,18,26,5.10
2009,02,14,18,27,5.10
2009,02,14,18,28,5.10
2009,02,14,18,29,5.10
2009,02,14,18,30,5.00
2009,02,14,18,31,5.00
2009,02,14,18,32,5.00
2009,02,14,18,33,4.90
2009,02,14,18,34,4.90
2009,02,14,18,35,4.90
2009,02,14,18,36,4.90
2009,02,14,18,37,4.90
2009,02,14,18,38,4.80
2009,02,14,18,39,4.80
2009,02,14,18,40,4.80
2009,02,14,18,41,4.80
2009,02,14,18,42,4.80
2009,02,14,18,43,4.80
2009,02,14,18,44,4.80
2009,02,14,18,45,4.80
2009,02,14,18,46,4.80
2009,02,14,18,47,4.80
2009,02,14,18,48,4.80
2009,02,14,18,49,4.80
2009,02,14,18,50,4.80
2009,02,14,18,51,4.80
2009,02,14,18,52,4.80
2009,02,14,18,53,4.80
2009,02,14,18,54,4.80
2009,02,14,18,55,4.80
2009,02,14,18,56,4.80
2009,02,14,18,57,4.80
2009,02,14,18,58,4.80
2009,02,14,18,59,4.80
2009,02,14,19,00,4.80
2009,02,14,19,01,4.90
2009,02,14,19,02,4.90
2009,02,14,19,03,4.90
2009,02,14,19,04,4.90
2009,02,14,19,05,4.90
2009,02,14,19,06,4.90
2009,02,14,19,07,5.00
2009,02,14,19,08,5.00
2009,02,14,19,09,5.10
2009,02,14,19,10,5.10
2009,02,14,19,11,5.10
2009,02,14,19,12,5.10
2009,02,14,19,13,5.10
2009,02,14,19,14,5.10
2009,02,14,19,15,5.10
2009,02,14,19,16,5.20
2009,02,14,19,17,5.20
2009,02,14,19,18,5.20
2009,02,14,19,19,5.20
2009,02,14,19,20,5.20
2009,02,14,19,21,5.20
2009,02,14,19,22,5.30
2009,02,14,19,23,5.30
2009,02,14,19,24,5.30
2009,02,14,19,25,5.30
2009,02,14,19,26,5.30
2009,02,14,19,27,5.30
2009,02,14,19,28,5.30
2009,02,14,19,29,5.30
2009,02,14,19,30,5.40
2009,02,14,19,31,5.40
2009,02,14,19,32,5.40
2009,02,14,19,33,5.40
2009,02,14,19,34,5.40
2009,02,14,19,35,5.40
2009,02,14,19,36,5.40
2009,02,14,19,37,5.40
2009,02,14,19,38,5.40
2009,02,14,19,39,5.40
2009,02,14,19,40,5.40
2009,02,14,19,41,5.40
2009,02,14,19,42,5.40
2009,02,14,19,43,5.40
2009,02,14,19,44,5.50
2009,02,14,19,45,5.50
2009,02,14,19,46,5.50
2009,02,14,19,47,5.50
2009,02,14,19,48,5.50
2009,02,14,19,49,5.50
2009,02,14,19,50,5.50
2009,02,14,19,51,5.50
2009,02,14,19,52,5.50
2009,02,14,19,53,5.50
2009,02,14,19,54,5.50
2009,02,14,19,55,5.50
2009,02,14,19,56,5.50
2009,02,14,19,57,5.50
2009,02,14,19,58,5.50
2009,02,14,19,59,5.50
2009,02,14,20,00,5.60
2009,02,14,20,01,5.50
2009,02,14,20,02,5.60
2009,02,14,20,03,5.50
2009,02,14,20,04,5.60
2009,02,14,20,05,5.60
2009,02,14,20,06,5.60
2009,02,14,20,07,5.60
2009,02,14,20,08,5.60
2009,02,14,20,09,5.60
2009,02,14,20,10,5.60
2009,02,14,20,11,5.60
2009,02,14,20,12,5.60
2009,02,14,20,13,5.60
2009,02,14,20,14,5.60
2009,02,14,20,15,5.50
2009,02,14,20,16,5.60
2009,02,14,20,17,5.60
2009,02,14,20,18,5.60
2009,02,14,20,19,5.60
2009,02,14,20,20,5.60
2009,02,14,20,21,5.60
2009,02,14,20,22,5.60
2009,02,14,20,23,5.60
2009,02,14,20,24,5.60
2009,02,14,20,25,5.60
2009,02,14,20,26,5.60
2009,02,14,20,27,5.60
2009,02,14,20,28,5.60
2009,02,14,20,29,5.60
2009,02,14,20,30,5.60
2009,02,14,20,31,5.60
2009,02,14,20,32,5.60
2009,02,14,20,33,5.60
2009,02,14,20,34,5.60
2009,02,14,20,35,5.60
2009,02,14,20,36,5.60
2009,02,14,20,37,5.60
2009,02,14,20,38,5.60
2009,02,14,20,39,5.60
2009,02,14,20,40,5.60
2009,02,14,20,41,5.60
2009,02,14,20,42,5.60
2009,02,14,20,43,5.60
2009,02,14,20,44,5.60
2009,02,14,20,45,5.60
2009,02,14,20,46,5.60
2009,02,14,20,47,5.60
2009,02,14,20,48,5.60
2009,02,14,20,49,5.60
2009,02,14,20,50,5.60
2009,02,14,20,51,5.60
2009,02,14,20,52,5.60
2009,02,14,20,53,5.60
2009,02,14,20,54,5.60
2009,02,14,20,55,5.60
2009,02,14,20,56,5.60
2009,02,14,20,57,5.60
2009,02,14,20,58,5.60
2009,02,14,20,59,5.60
2009,02,14,21,00,5.60
2009,02,14,21,01,5.60
2009,02,14,21,02,5.60
2009,02,14,21,03,5.60
2009,02,14,21,04,5.60
2009,02,14,21,05,5.60
2009,02,14,21,06,5.60
2009,02,14,21,07,5.60
2009,02,14,21,08,5.60
2009,02,14,21,09,5.60
2009,02,14,21,10,5.60
2009,02,14,21,11,5.60
2009,02,14,21,12,5.60
2009,02,14,21,13,5.60
2009,02,14,21,14,5.60
2009,02,14,21,15,5.60
2009,02,14,21,16,5.60
2009,02,14,21,17,5.60
2009,02,14,21,18,5.60
2009,02,14,21,19,5.60
2009,02,14,21,20,5.60
2009,02,14,21,21,5.60
2009,02,14,21,22,5.60
2009,02,14,21,23,5.60
2009,02,14,21,24,5.60
2009,02,14,21,25,5.60
2009,02,14,21,26,5.60
2009,02,14,21,27,5.60
2009,02,14,21,28,5.60
2009,02,14,21,29,5.60
2009,02,14,21,30,5.60
2009,02,14,21,31,5.60
2009,02,14,21,32,5.60
2009,02,14,21,33,5.60
2009,02,14,21,34,5.60
2009,02,14,21,35,5.60
2009,02,14,21,36,5.60
2009,02,14,21,37,5.60
2009,02,14,21,38,5.60
2009,02,14,21,39,5.60
2009,02,14,21,40,5.60
2009,02,14,21,41,5.60
2009,02,14,21,42,5.60
2009,02,14,21,43,5.60
2009,02,14,21,44,5.60
2009,02,14,21,45,5.60
2009,02,14,21,46,5.60
2009,02,14,21,47,5.60
2009,02,14,21,48,5.60
2009,02,14,21,49,5.60
2009,02,14,21,50,5.60
2009,02,14,21,51,5.50
2009,02,14,21,52,5.50
2009,02,14,21,53,5.50
2009,02,14,21,54,5.50
2009,02,14,21,55,5.50
2009,02,14,21,56,5.50
2009,02,14,21,57,5.50
2009,02,14,21,58,5.40
2009,02,14,21,59,5.40
2009,02,14,22,00,5.40
2009,02,14,22,01,5.40
2009,02,14,22,02,5.40
2009,02,14,22,03,5.40
2009,02,14,22,04,5.40
2009,02,14,22,05,5.40
2009,02,14,22,06,5.40
2009,02,14,22,07,5.40
2009,02,14,22,08,5.40
2009,02,14,22,09,5.30
2009,02,14,22,10,5.30
2009,02,14,22,11,5.30
2009,02,14,22,12,5.30
2009,02,14,22,13,5.30
2009,02,14,22,14,5.30
2009,02,14,22,15,5.30
2009,02,14,22,16,5.30
2009,02,14,22,17,5.30
2009,02,14,22,18,5.30
2009,02,14,22,19,5.30
2009,02,14,22,20,5.30
2009,02,14,22,21,5.30
2009,02,14,22,22,5.30
2009,02,14,22,23,5.30
2009,02,14,22,24,5.30
2009,02,14,22,25,5.30
2009,02,14,22,26,5.30
2009,02,14,22,27,5.30
2009,02,14,22,28,5.30
2009,02,14,22,29,5.30
2009,02,14,22,30,5.30
2009,02,14,22,31,5.30
2009,02,14,22,32,5.30
2009,02,14,22,33,5.30
2009,02,14,22,34,5.30
2009,02,14,22,35,5.30
2009,02,14,22,36,5.30
2009,02,14,22,37,5.20
2009,02,14,22,38,5.20
2009,02,14,22,39,5.20
2009,02,14,22,40,5.30
2009,02,14,22,41,5.30
2009,02,14,22,42,5.20
2009,02,14,22,43,5.30
2009,02,14,22,44,5.30
2009,02,14,22,45,5.30
2009,02,14,22,46,5.30
2009,02,14,22,47,5.30
2009,02,14,22,48,5.30
2009,02,14,22,49,5.30
2009,02,14,22,50,5.30
2009,02,14,22,51,5.30
2009,02,14,22,52,5.30
2009,02,14,22,53,5.30
2009,02,14,22,54,5.30
2009,02,14,22,55,5.30
2009,02,14,22,56,5.30
2009,02,14,22,57,5.30
2009,02,14,22,58,5.30
2009,02,14,22,59,5.30
2009,02,14,23,00,5.30
2009,02,14,23,01,5.30
2009,02,14,23,02,5.30
2009,02,14,23,03,5.30
2009,02,14,23,04,5.30
2009,02,14,23,05,5.30
2009,02,14,23,06,5.30
2009,02,14,23,07,5.30
2009,02,14,23,08,5.20
2009,02,14,23,09,5.20
2009,02,14,23,10,5.20
2009,02,14,23,11,5.20
2009,02,14,23,12,5.20
2009,02,14,23,13,5.20
2009,02,14,23,14,5.20
2009,02,14,23,15,5.20
2009,02,14,23,16,5.20
2009,02,14,23,17,5.20
2009,02,14,23,18,5.20
2009,02,14,23,19,5.20
2009,02,14,23,20,5.20
2009,02,14,23,21,5.20
2009,02,14,23,22,5.10
2009,02,14,23,23,5.10
2009,02,14,23,24,5.10
2009,02,14,23,25,5.10
2009,02,14,23,26,5.10
2009,02,14,23,27,5.10
2009,02,14,23,28,5.10
2009,02,14,23,29,5.10
2009,02,14,23,30,5.10
2009,02,14,23,31,5.10
2009,02,14,23,32,5.10
2009,02,14,23,33,5.10
2009,02,14,23,34,5.10
2009,02,14,23,35,5.10
2009,02,14,23,36,5.10
2009,02,14,23,37,5.10
2009,02,14,23,38,5.10
2009,02,14,23,39,5.10
2009,02,14,23,40,5.10
2009,02,14,23,41,5.10
2009,02,14,23,42,5.10
2009,02,14,23,43,5.10
2009,02,14,23,44,5.10
2009,02,14,23,45,5.10
2009,02,14,23,46,5.00
2009,02,14,23,47,5.00
2009,02,14,23,48,5.00
2009,02,14,23,49,5.00
2009,02,14,23,50,5.00
2009,02,14,23,51,5.00
2009,02,14,23,52,5.00
2009,02,14,23,53,5.00
2009,02,14,23,54,4.90
2009,02,14,23,55,4.90
2009,02,14,23,56,4.90
2009,02,14,23,57,4.90
2009,02,14,23,58,4.90
2009,02,14,23,59,4.90
